Regional Weather Roundup
Issued by NWS

Current Version | Previous Version | Text Only | Print | Product List | Glossary On
Versions: 1 2 3 4 5 6 7 8 9 10 11 12 13 14 15 16 17 18 19 20 21 22 23 24 25 26 27 28 29 30 31 32 33 34 35 36 37 38 39 40 41 42 43 44 45 46 47 48 49 50
000
ASUS44 KOUN 272110
RWROK

WEATHER ROUNDUP FOR OKLAHOMA
NATIONAL WEATHER SERVICE NORMAN OK
400 PM CDT TUE JUN 27 2017

NOTE: "FAIR" INDICATES FEW OR NO CLOUDS BELOW 12,000 FEET WITH NO
      SIGNIFICANT WEATHER AND/OR OBSTRUCTIONS TO VISIBILITY.

OKZ001>007-009>012-014-015-017-272200-
NORTHWEST OKLAHOMA AND THE PANHANDLE

CITY           SKY/WX    TMP DP  RH WIND       PRES   REMARKS
GAGE           SUNNY     95  57  27 S21G36    29.91F HX  94
$$

OKZ016-021>023-033>039-044-045-272200-
SOUTHWEST OKLAHOMA

CITY           SKY/WX    TMP DP  RH WIND       PRES   REMARKS
LAWTON/REGL    MOSUNNY   92  66  42 S13       29.94F HX  94
FREDERICK      MOSUNNY   93  67  42 SE18G25   29.91F HX  96
CLINTON        MOSUNNY   94  60  32 S20       29.95F HX  94
HOBART         SUNNY     94  64  37 S20G31    29.94F HX  95
ALTUS AFB      SUNNY     92  61  35 S14G24    29.93F HX  92
$$

OKZ018>020-024>031-272200-
CENTRAL OKLAHOMA

CITY           SKY/WX    TMP DP  RH WIND       PRES   REMARKS
OKLAHOMA CITY  PTSUNNY   92  63  38 S14       29.95F HX  93
OKC/WILEY POST MOSUNNY   91  64  40 S16       29.94F HX  92
STILLWATER     MOSUNNY   93  66  40 S14       29.94F HX  96
GUTHRIE        SUNNY     92  65  40 S14G25    29.93F HX  94
$$

OKZ008-013-054>072-272200-
NORTHEAST OKLAHOMA

CITY           SKY/WX    TMP DP  RH WIND       PRES   REMARKS
TULSA          MOSUNNY   89  65  44 S13G20    29.96F HX  91
TULSA/JONES    SUNNY     91  61  36 S12G20    29.97F HX  91
PONCA CITY     PTSUNNY   89  65  44 S20G26    29.92F HX  91
BARTLESVILLE   SUNNY     88  64  44 S10G18    29.97F
MUSKOGEE       MOSUNNY   85  68  56 SE9       30.00F
$$

OKZ032-040>043-046>053-073>077-272200-
SOUTH CENTRAL/SOUTHEAST OKLAHOMA

CITY           SKY/WX    TMP DP  RH WIND       PRES   REMARKS
ARDMORE/DWNTWN SUNNY     90  59  35 SW5       29.95F
MCALESTER      MOSUNNY   89  68  49 VRB5      29.98F HX  93
$$




USA.gov is the U.S. government's official web portal to all federal, state and local government web resources and services.